GW4400 Weather Reports


time (UTC)temp
F
wind
direction
speed
knots
gust
knots
rain 1hr
in
rain 24hr
in
rain mn
in
humidity
%
barometer
mb
20260506014003 62 271 0.0 0.0 0.00 0.00 0.00 87 1012.2
20260506013502 62 271 0.0 0.0 0.00 0.00 0.00 88 1012.2
20260506013002 62 271 0.0 0.0 0.00 0.00 0.00 88 1012.2
20260506012502 61 271 0.0 0.0 0.00 0.00 0.00 86 1012.0
20260506012002 61 271 0.0 0.0 0.00 0.00 0.00 87 1011.9
20260506011608 61 271 0.0 0.0 0.00 0.00 0.00 86 1011.8
20260506011103 61 271 0.0 0.0 0.00 0.00 0.00 87 1011.7
20260506010559 61 271 0.0 0.0 0.00 0.00 0.00 86 1011.6
20260506010058 61 271 0.0 0.0 0.00 0.00 0.00 86 1011.6
20260506005558 61 271 0.0 0.0 0.00 0.00 0.00 85 1011.6
20260506005056 61 271 0.0 0.0 0.00 0.00 0.00 85 1011.4
20260506004557 61 201 0.0 0.0 0.00 0.00 0.00 83 1011.3
20260506004056 62 201 0.0 0.0 0.00 0.00 0.00 82 1011.4
20260506003557 62 201 0.0 0.0 0.00 0.00 0.00 81 1011.3
20260506003056 62 201 0.0 3.5 0.00 0.00 0.00 81 1011.4
20260506002554 63 201 0.0 3.5 0.00 0.00 0.00 81 1011.5
20260506002055 64 200 0.0 0.0 0.00 0.00 0.00 79 1011.5
20260506001554 65 200 0.0 0.0 0.00 0.00 0.00 78 1011.5
20260506001055 66 200 0.0 0.0 0.00 0.00 0.00 77 1011.5
20260506000552 67 200 0.0 0.0 0.00 0.00 0.00 75 1011.4
20260506000051 68 200 0.0 0.0 0.00 0.00 0.00 74 1011.2
20260505235550 69 197 0.0 0.0 0.00 0.00 0.00 74 1011.4
20260505235050 70 197 0.0 0.0 0.00 0.00 0.00 72 1011.4
20260505234559 71 197 0.0 0.0 0.00 0.00 0.00 70 1011.4
20260505234049 71 197 0.0 0.0 0.00 0.00 0.00 65 1011.6
20260505233548 72 197 0.0 0.0 0.00 0.00 0.00 64 1011.7
20260505233047 72 169 0.0 0.0 0.00 0.00 0.00 66 1011.5
20260505232547 73 130 0.0 0.0 0.00 0.00 0.00 66 1011.4
20260505232046 73 130 0.0 0.0 0.00 0.00 0.00 68 1011.5
20260505231602 73 130 0.0 0.0 0.00 0.00 0.00 71 1011.4
20260505231044 72 129 0.0 0.0 0.00 0.00 0.00 68 1011.4
20260505230544 72 130 0.0 0.0 0.00 0.00 0.00 65 1011.4
20260505230043 73 182 0.0 0.0 0.00 0.00 0.00 67 1011.6
20260505225542 73 182 0.0 0.0 0.00 0.00 0.00 63 1011.6
20260505225042 74 183 0.0 0.0 0.00 0.00 0.00 56 1011.6
20260505224541 74 155 0.0 0.0 0.00 0.00 0.00 56 1011.5
20260505224043 74 155 0.0 0.0 0.00 0.00 0.00 54 1011.4
20260505223541 74 125 0.0 0.0 0.00 0.00 0.00 53 1011.5
20260505223039 75 125 0.0 0.0 0.00 0.00 0.00 53 1011.5
20260505222539 75 159 0.0 0.0 0.00 0.00 0.00 51 1011.6
20260505222039 75 128 0.0 0.0 0.00 0.00 0.00 53 1011.6
20260505221538 76 141 0.0 0.0 0.00 0.00 0.00 50 1011.8
20260505221036 76 174 0.0 0.0 0.00 0.00 0.00 50 1011.9
20260505220535 76 235 0.0 0.0 0.00 0.00 0.00 50 1011.9
20260505220038 75 234 0.0 0.0 0.00 0.00 0.00 50 1011.9
20260505215534 75 218 0.0 0.0 0.00 0.00 0.00 50 1011.9
20260505215033 75 139 0.0 0.0 0.00 0.00 0.00 51 1011.9
20260505214558 75 162 0.0 0.0 0.00 0.00 0.00 50 1011.7
20260505214034 75 165 0.0 0.9 0.00 0.00 0.00 52 1011.5
20260505213531 75 225 0.0 1.7 0.00 0.00 0.00 48 1011.6
20260505213031 75 250 0.0 1.7 0.00 0.00 0.00 48 1011.7
20260505212533 76 158 0.0 0.9 0.00 0.00 0.00 48 1011.6
20260505212030 77 135 0.0 2.6 0.00 0.00 0.00 46 1011.4
20260505211532 77 231 0.0 3.5 0.00 0.00 0.00 46 1011.5
20260505211028 77 245 0.0 3.5 0.00 0.00 0.00 49 1011.6
20260505210526 77 231 0.0 0.0 0.00 0.00 0.00 48 1011.7
20260505210026 77 233 0.0 5.2 0.00 0.00 0.00 49 1011.8
20260505205525 78 227 0.0 5.2 0.00 0.00 0.00 47 1011.7
20260505205025 79 107 0.0 5.2 0.00 0.00 0.00 46 1011.6
20260505204524 80 143 0.0 3.5 0.00 0.00 0.00 47 1011.8
20260505204021 79 271 0.0 0.0 0.00 0.00 0.00 48 1011.9
20260505203525 78 167 0.0 3.5 0.00 0.00 0.00 47 1011.9
20260505203020 78 259 0.0 3.5 0.00 0.00 0.00 47 1012.1
20260505202520 78 153 0.0 3.5 0.00 0.00 0.00 45 1012.1
20260505202017 79 232 0.0 6.1 0.00 0.00 0.00 47 1012.3
20260505201516 78 236 0.0 6.1 0.00 0.00 0.00 45 1012.2
20260505201014 78 257 0.0 9.6 0.00 0.00 0.00 46 1012.2
20260505200514 77 198 0.0 9.6 0.00 0.00 0.00 45 1012.3
20260505200013 78 278 0.0 4.3 0.00 0.00 0.00 47 1012.2
20260505195513 78 165 0.0 4.3 0.00 0.00 0.00 47 1012.2
20260505195010 77 188 0.0 1.7 0.00 0.00 0.00 48 1012.3
20260505194509 77 235 0.0 1.7 0.00 0.00 0.00 45 1012.5
20260505194008 77 70 0.0 4.3 0.00 0.00 0.00 47 1012.6
20260505193511 77 243 0.0 3.5 0.00 0.00 0.00 48 1012.7
20260505193006 77 256 0.0 3.5 0.00 0.00 0.00 44 1012.8
20260505192511 77 238 0.0 0.0 0.00 0.00 0.00 49 1012.9
20260505192006 77 122 0.0 0.0 0.00 0.00 0.00 46 1012.8
20260505191504 78 291 0.0 0.9 0.00 0.00 0.00 46 1013.0
20260505191001 78 284 0.0 4.3 0.00 0.00 0.00 46 1013.2
20260505190502 78 243 0.0 4.3 0.00 0.00 0.00 45 1013.3
20260505190001 78 179 0.0 3.5 0.00 0.00 0.00 46 1013.3
20260505185600 78 101 0.0 3.5 0.00 0.00 0.00 46 1013.3
20260505185100 78 234 0.0 3.5 0.00 0.00 0.00 47 1013.2
20260505184559 78 147 0.0 2.6 0.00 0.00 0.00 45 1013.3
20260505184057 78 218 0.0 2.6 0.00 0.00 0.00 49 1013.3
20260505183557 77 135 0.0 4.3 0.00 0.00 0.00 49 1013.3
20260505183105 77 76 0.0 4.3 0.00 0.00 0.00 49 1013.4
20260505182554 77 280 0.0 1.7 0.00 0.00 0.00 51 1013.4
20260505182052 76 248 0.0 5.2 0.00 0.00 0.00 48 1013.2
20260505181553 76 127 0.0 5.2 0.00 0.00 0.00 50 1013.3
20260505181050 77 97 0.0 1.7 0.00 0.00 0.00 50 1013.3
20260505180549 76 266 0.0 2.6 0.00 0.00 0.00 54 1013.4
20260505180051 76 88 0.0 7.0 0.00 0.00 0.00 53 1013.5
20260505175548 76 271 0.0 7.0 0.00 0.00 0.00 55 1013.6
20260505175047 76 147 0.0 1.7 0.00 0.00 0.00 53 1013.5
20260505174557 76 283 0.0 1.7 0.00 0.00 0.00 55 1013.8
20260505174046 76 120 0.0 1.7 0.00 0.00 0.00 55 1014.0
20260505173546 76 271 0.0 2.6 0.00 0.00 0.00 54 1014.1
20260505173043 76 224 0.0 4.3 0.00 0.00 0.00 52 1014.3
20260505172544 76 248 0.0 4.3 0.00 0.00 0.00 54 1014.4
20260505172043 76 258 0.0 7.0 0.00 0.00 0.00 56 1014.3
20260505171546 75 98 0.0 7.0 0.00 0.00 0.00 58 1014.5
20260505171038 75 284 0.0 1.7 0.00 0.00 0.00 54 1014.4
20260505170537 75 225 0.0 5.2 0.00 0.00 0.00 53 1014.4
20260505170036 75 281 0.0 5.2 0.00 0.00 0.00 53 1014.4
20260505165535 75 275 0.0 9.6 0.00 0.00 0.00 52 1014.5
20260505165036 75 291 0.9 9.6 0.00 0.00 0.00 52 1014.6
20260505164536 75 289 0.0 9.6 0.00 0.00 0.00 53 1014.4
20260505164036 74 192 0.9 9.6 0.00 0.00 0.00 53 1014.2
20260505163534 74 269 0.0 9.6 0.00 0.00 0.00 52 1014.2
20260505163033 74 235 1.7 9.6 0.00 0.00 0.00 51 1014.3
20260505162532 75 280 0.0 4.3 0.00 0.00 0.00 54 1014.1
20260505162029 75 129 0.0 4.3 0.00 0.00 0.00 55 1014.1
20260505161529 75 261 0.0 5.2 0.00 0.00 0.00 56 1014.2
20260505161028 75 307 0.0 5.2 0.00 0.00 0.00 54 1014.3
20260505160527 75 238 0.0 1.7 0.00 0.00 0.00 58 1014.3
20260505153016 73 332 0.0 0.0 0.00 0.00 0.00 63 1014.7
20260505152514 72 103 0.0 0.0 0.00 0.00 0.00 64 1014.8
20260505152016 72 85 0.0 0.0 0.00 0.00 0.00 67 1014.7
20260505151512 71 131 0.0 0.0 0.00 0.00 0.00 66 1014.7
20260505151012 72 115 0.0 0.0 0.00 0.00 0.00 69 1014.6
20260505150511 72 59 0.0 0.0 0.00 0.00 0.00 68 1014.8
20260505140555 68 122 0.0 0.0 0.00 0.00 0.00 75 1015.1
20260505140111 67 222 0.0 0.0 0.00 0.00 0.00 76 1015.1
20260505125026 56 304 0.0 0.0 0.00 0.00 0.00 95 1014.4
20260505124532 56 304 0.0 0.0 0.00 0.00 0.00 95 1014.4
20260505124023 55 305 0.0 0.0 0.00 0.00 0.00 95 1014.2
20260505123524 55 305 0.0 0.0 0.00 0.00 0.00 95 1014.4
20260505123028 55 304 0.0 0.0 0.00 0.00 0.00 96 1014.4
20260505122520 55 304 0.0 0.0 0.00 0.00 0.00 96 1014.3
20260505122118 54 304 0.0 0.0 0.00 0.00 0.00 96 1014.4
20260505121522 54 305 0.0 0.0 0.00 0.00 0.00 97 1014.3
20260505121015 53 304 0.0 0.0 0.00 0.00 0.00 97 1014.5
20260505120512 53 304 0.0 0.0 0.00 0.00 0.00 97 1014.4
20260505120027 52 304 0.0 0.0 0.00 0.00 0.00 97 1014.3
20260505115508 51 305 0.0 0.0 0.00 0.00 0.00 97 1014.4
20260505115007 51 305 0.0 0.0 0.00 0.00 0.00 96 1014.4
20260505114504 50 305 0.0 0.0 0.00 0.00 0.00 96 1014.3
20260505114005 49 304 0.0 0.0 0.00 0.00 0.00 96 1014.4
20260505113600 48 304 0.0 0.0 0.00 0.00 0.00 96 1014.3
20260505113120 46 304 0.0 0.0 0.00 0.00 0.00 96 1014.0
20260505112557 45 300 0.0 0.0 0.00 0.00 0.00 96 1014.0
20260505112057 44 300 0.0 0.0 0.00 0.00 0.00 96 1013.9
20260505111556 43 300 0.0 0.0 0.00 0.00 0.00 96 1013.8
20260505111056 43 300 0.0 0.0 0.00 0.00 0.00 96 1013.7
20260505110558 42 300 0.0 0.0 0.00 0.00 0.00 96 1013.7
20260505102047 42 300 0.0 0.0 0.00 0.00 0.00 96 1013.3
20260505101552 42 300 0.0 0.0 0.00 0.00 0.00 96 1013.3
20260505101045 42 300 0.0 0.0 0.00 0.00 0.00 96 1013.4
20260505100545 42 300 0.0 0.0 0.00 0.00 0.00 95 1013.4
20260505100044 42 300 0.0 0.0 0.00 0.00 0.00 96 1013.4
20260505095543 42 300 0.0 0.0 0.00 0.00 0.00 96 1013.7
20260505095044 42 300 0.0 0.0 0.00 0.00 0.00 96 1013.7
20260505094542 42 300 0.0 0.0 0.00 0.00 0.00 96 1013.6
20260505094040 42 300 0.0 0.0 0.00 0.00 0.00 95 1013.5
20260505093540 42 300 0.0 0.0 0.00 0.00 0.00 95 1013.5
20260505093039 42 300 0.0 0.0 0.00 0.00 0.00 95 1013.7
20260505092539 42 300 0.0 0.0 0.00 0.00 0.00 95 1013.6
20260505092037 42 300 0.0 0.0 0.00 0.00 0.00 95 1013.4
20260505091539 43 300 0.0 0.0 0.00 0.00 0.00 95 1013.6
20260505091035 43 300 0.0 0.0 0.00 0.00 0.00 95 1013.6
20260505090534 43 300 0.0 0.0 0.00 0.00 0.00 95 1013.5
20260505090033 43 300 0.0 0.0 0.00 0.00 0.00 95 1013.7
20260505085532 43 300 0.0 0.0 0.00 0.00 0.00 95 1013.6
20260505085033 43 300 0.0 0.0 0.00 0.00 0.00 95 1013.6
20260505084530 44 300 0.0 0.0 0.00 0.00 0.00 96 1013.7
20260505084027 44 300 0.0 0.0 0.00 0.00 0.00 95 1013.7
20260505083527 44 300 0.0 0.0 0.00 0.00 0.00 95 1013.7
20260505083026 44 300 0.0 0.0 0.00 0.00 0.00 95 1013.7
20260505082528 44 300 0.0 0.0 0.00 0.00 0.00 95 1013.7
20260505082025 44 300 0.0 0.0 0.00 0.00 0.00 95 1013.8
20260505081526 44 300 0.0 0.0 0.00 0.00 0.00 95 1013.8
20260505081024 44 300 0.0 0.0 0.00 0.00 0.00 96 1013.8
20260505080522 44 300 0.0 0.0 0.00 0.00 0.00 95 1013.7
20260505080021 44 300 0.0 0.0 0.00 0.00 0.00 95 1013.7
20260505075520 44 300 0.0 0.0 0.00 0.00 0.00 95 1013.7
20260505075022 44 300 0.0 0.0 0.00 0.00 0.00 95 1013.7
20260505074519 44 300 0.0 0.0 0.00 0.00 0.00 95 1013.6
20260505074019 44 300 0.0 0.0 0.00 0.00 0.00 95 1013.7
20260505073523 44 300 0.0 0.0 0.00 0.00 0.00 95 1013.8
20260505073017 44 300 0.0 0.0 0.00 0.00 0.00 95 1013.7
20260505072516 45 300 0.0 0.0 0.00 0.00 0.00 95 1013.6
20260505072014 45 300 0.0 0.0 0.00 0.00 0.00 95 1013.7
20260505071528 45 300 0.0 0.0 0.00 0.00 0.00 95 1013.8
20260505071013 45 300 0.0 0.0 0.00 0.00 0.00 95 1013.7
20260505070516 45 300 0.0 0.0 0.00 0.00 0.00 95 1013.8
20260505070011 45 300 0.0 0.0 0.00 0.00 0.00 95 1013.8
20260505065509 45 300 0.0 0.0 0.00 0.00 0.00 95 1013.7
20260505065007 45 300 0.0 0.0 0.00 0.00 0.00 95 1013.7
20260505064509 45 300 0.0 0.0 0.00 0.00 0.00 95 1013.9
20260505064007 45 300 0.0 0.0 0.00 0.00 0.00 95 1013.7
20260505063506 46 300 0.0 0.0 0.00 0.00 0.00 95 1013.8
20260505063007 46 300 0.0 0.0 0.00 0.00 0.00 95 1013.8
20260505062503 46 300 0.0 0.0 0.00 0.00 0.00 95 1013.8
20260505062002 46 300 0.0 0.0 0.00 0.00 0.00 95 1013.8
20260505061502 46 300 0.0 0.0 0.00 0.00 0.00 95 1013.9
20260505061002 46 300 0.0 0.0 0.00 0.00 0.00 95 1013.9
20260505060600 46 300 0.0 0.0 0.00 0.00 0.00 94 1013.9
20260505060100 46 300 0.0 0.0 0.00 0.00 0.00 95 1013.9
20260505055601 47 300 0.0 0.0 0.00 0.00 0.00 95 1013.9
20260505055058 47 300 0.0 0.0 0.00 0.00 0.00 95 1013.9
20260505054557 47 300 0.0 0.0 0.00 0.00 0.00 95 1014.2
20260505054100 47 300 0.0 0.0 0.00 0.00 0.00 94 1014.2
20260505053555 47 300 0.0 0.0 0.00 0.00 0.00 94 1014.1
20260505053055 47 300 0.0 0.0 0.00 0.00 0.00 94 1014.1
20260505052551 47 300 0.0 0.0 0.00 0.00 0.00 94 1014.0
20260505052052 48 300 0.0 0.0 0.00 0.00 0.00 94 1014.1
20260505051602 47 300 0.0 0.0 0.00 0.00 0.00 94 1014.0
20260505051048 48 300 0.0 0.0 0.00 0.00 0.00 94 1014.1
20260505050548 48 300 0.0 0.0 0.00 0.00 0.00 94 1014.0
20260505041531 49 300 0.0 0.0 0.00 0.00 0.00 94 1014.0
20260505041029 49 300 0.0 0.0 0.00 0.00 0.00 94 1013.9
20260505040529 49 300 0.0 0.0 0.00 0.00 0.00 93 1013.9
20260505040026 50 300 0.0 0.0 0.00 0.00 0.00 93 1013.9
20260505035625 50 300 0.0 0.0 0.00 0.00 0.00 93 1013.9
20260505035024 50 300 0.0 0.0 0.00 0.00 0.00 93 1014.0
20260505034524 51 300 0.0 0.0 0.00 0.00 0.00 94 1014.0
20260505034023 51 300 0.0 0.0 0.00 0.00 0.00 93 1014.0
20260505033523 51 300 0.0 0.0 0.00 0.00 0.00 93 1014.1
20260505033022 51 300 0.0 0.0 0.00 0.00 0.00 93 1014.1
20260505032522 51 300 0.0 0.0 0.00 0.00 0.00 93 1014.1
20260505032020 51 300 0.0 0.0 0.00 0.00 0.00 93 1014.1
20260505031521 51 300 0.0 0.0 0.00 0.00 0.00 93 1014.1
20260505031019 51 300 0.0 0.0 0.00 0.00 0.00 93 1014.1
20260505030520 51 300 0.0 0.0 0.00 0.00 0.00 92 1014.0
20260505030019 52 300 0.0 0.0 0.00 0.00 0.00 92 1014.0
20260505025521 52 300 0.0 0.0 0.00 0.00 0.00 92 1014.0
20260505025019 52 300 0.0 0.0 0.00 0.00 0.00 92 1014.0
20260505024517 52 300 0.0 0.0 0.00 0.00 0.00 91 1014.0
20260505024016 52 300 0.0 0.0 0.00 0.00 0.00 91 1014.0
20260505023515 53 300 0.0 0.0 0.00 0.00 0.00 91 1014.0
20260505023021 53 300 0.0 0.0 0.00 0.00 0.00 91 1013.9
20260505022515 53 300 0.0 0.0 0.00 0.00 0.00 91 1014.0
20260505022017 53 300 0.0 0.0 0.00 0.00 0.00 91 1013.9
20260505021515 54 300 0.0 0.0 0.00 0.00 0.00 91 1013.7
20260505021012 54 300 0.0 0.0 0.00 0.00 0.00 90 1013.8
20260505020512 54 300 0.0 0.0 0.00 0.00 0.00 91 1013.6
20260505020011 54 300 0.0 0.0 0.00 0.00 0.00 90 1013.7
20260505015510 54 300 0.0 0.0 0.00 0.00 0.00 89 1013.7
20260505015009 55 300 0.0 0.0 0.00 0.00 0.00 89 1013.6
20260505014513 55 300 0.0 0.0 0.00 0.00 0.00 89 1013.6